CDT,Max TemperatureF,Mean TemperatureF,Min TemperatureF,Max Dew PointF,MeanDew PointF,Min DewpointF,Max Humidity, Mean Humidity, Min Humidity, Max Sea Level PressureIn, Mean Sea Level PressureIn, Min Sea Level PressureIn, Max VisibilityMiles, Mean VisibilityMiles, Min VisibilityMiles, Max Wind SpeedMPH, Mean Wind SpeedMPH, Max Gust SpeedMPH,PrecipitationIn, CloudCover, Events, WindDirDegrees
2014-4-1,60,52,44,41,34,25,66,48,35,30.07,29.96,29.83,10,10,8,16,11,21,0.00,6,,65
2014-4-2,88,68,48,64,57,40,89,64,40,29.82,29.68,29.56,10,9,5,22,12,29,0.00,3,,160
2014-4-3,77,62,45,65,55,40,84,63,33,29.97,29.64,29.52,10,10,9,21,16,33,0.00,3,,269
2014-4-4,62,48,35,30,25,19,62,39,21,30.18,30.11,29.99,10,10,10,17,12,26,0.00,0,,352
2014-4-5,70,50,30,30,26,22,85,43,17,30.17,30.07,29.95,10,9,6,15,6,22,0.00,1,,126
2014-4-6,57,48,42,43,39,31,83,65,43,30.03,29.90,29.83,10,10,10,10,6,,0.00,5,Rain,129
2014-4-7,69,56,44,47,44,38,100,84,35,29.96,29.85,29.80,10,6,0,17,3,26,0.06,5,Fog-Rain,277
2014-4-8,70,56,41,36,29,24,68,38,20,30.14,30.06,29.96,10,10,10,26,13,38,0.00,0,,334
2014-4-9,84,58,33,42,34,29,85,44,17,30.15,30.01,29.82,10,10,10,21,7,31,0.00,0,,186
2014-4-10,88,74,61,43,40,34,50,34,16,29.91,29.79,29.73,10,10,8,17,11,26,0.00,0,,241
2014-4-11,84,67,50,57,49,39,78,54,38,29.99,29.90,29.85,10,10,7,14,9,18,0.00,0,,108
2014-4-12,89,74,61,59,58,57,90,63,36,29.86,29.69,29.58,10,10,9,28,14,36,0.00,0,,161
2014-4-13,87,62,41,61,54,33,78,66,44,29.87,29.55,29.34,10,9,2,32,21,40,0.43,5,Rain,221
2014-4-14,52,42,30,34,28,15,93,70,26,30.26,30.13,29.90,10,7,1,25,15,34,0.01,6,Snow,346
2014-4-15,64,46,28,24,19,14,72,39,15,30.26,30.16,30.00,10,10,10,13,6,20,0.00,0,,233
2014-4-16,71,58,46,35,29,24,49,35,21,30.00,29.94,29.86,10,10,10,30,16,43,0.00,0,,175
2014-4-17,57,50,41,39,37,35,86,61,49,30.27,30.18,30.03,10,10,5,14,6,18,0.00,3,Rain,43
2014-4-18,75,56,37,43,39,34,93,62,26,30.29,30.21,30.09,10,7,2,10,4,17,0.00,0,,102
2014-4-19,82,64,48,50,46,41,77,49,31,30.15,30.09,30.03,10,10,2,21,9,26,0.00,0,,165
2014-4-20,77,67,57,58,53,50,90,66,47,30.09,30.04,29.99,10,10,10,18,10,23,0.00,3,,170
2014-4-21,77,66,57,63,58,55,96,84,52,30.03,29.99,29.94,10,7,2,9,4,,0.06,5,Rain,95
2014-4-22,82,63,46,55,42,31,100,55,17,30.12,30.03,29.91,10,8,0,9,3,,0.01,0,Fog,57
2014-4-23,89,70,52,62,48,38,87,48,25,29.91,29.78,29.60,10,10,7,30,11,34,0.15,1,Rain-Thunderstorm,161
2014-4-24,73,62,44,62,51,35,88,59,26,29.93,29.72,29.57,10,10,10,24,16,37,0.01,2,Rain,279
2014-4-25,84,63,42,44,38,35,74,29,19,29.99,29.90,29.79,10,10,10,21,6,30,0.00,0,,172
2014-4-26,91,76,60,63,51,39,68,45,30,29.77,29.62,29.49,10,10,9,28,16,40,0.00,0,,161
2014-4-27,82,70,59,65,53,28,94,60,14,29.51,29.39,29.27,10,8,2,28,18,55,0.22,5,Rain-Thunderstorm,186
2014-4-28,75,63,51,41,36,32,59,40,22,29.67,29.54,29.40,10,10,6,25,13,36,0.00,2,Rain,279
2014-4-29,57,52,48,37,35,33,61,51,42,29.97,29.79,29.65,10,10,10,22,13,34,0.00,5,,305
2014-4-30,64,53,37,36,30,22,71,49,22,30.12,30.07,29.99,10,10,10,17,12,26,0.00,3,,311